EW4483 Weather Reports


time (UTC)temp
F
wind
direction
speed
knots
gust
knots
rain 1hr
in
rain 24hr
in
rain mn
in
humidity
%
barometer
mb
20190323224804 44 298 12.2 18.2 0.00 0.00 0.00 61 1016.4
20190323224304 44 283 11.3 19.1 0.00 0.00 0.00 62 1016.4
20190323223804 44 293 12.2 14.8 0.00 0.00 0.00 62 1016.4
20190323223304 44 277 10.4 17.4 0.00 0.00 0.00 63 1016.3
20190323222804 43 278 12.2 17.4 0.00 0.00 0.00 63 1016.2
20190323222312 43 276 11.3 15.6 0.00 0.00 0.00 63 1016.1
20190323221804 43 290 11.3 17.4 0.00 0.00 0.00 62 1016.1
20190323221304 43 284 8.7 14.8 0.00 0.00 0.00 62 1016.1
20190323220804 42 274 7.8 12.2 0.00 0.00 0.00 63 1016.1
20190323220304 42 282 8.7 12.2 0.00 0.00 0.00 62 1016.1
20190323215804 42 301 7.0 10.4 0.00 0.00 0.00 63 1016.0
20190323215305 41 282 7.8 10.4 0.00 0.00 0.00 62 1016.0
20190323214804 41 288 6.1 10.4 0.00 0.00 0.00 63 1015.9
20190323214304 40 280 6.1 8.7 0.00 0.00 0.00 63 1015.8
20190323213805 40 280 5.2 7.8 0.00 0.00 0.00 63 1015.8
20190323213304 39 278 5.2 7.8 0.00 0.00 0.00 64 1015.7
20190323212804 39 287 4.3 7.0 0.00 0.00 0.00 64 1015.7
20190323212304 39 287 4.3 7.0 0.00 0.00 0.00 63 1015.7
20190323211804 39 292 4.3 7.0 0.00 0.00 0.00 62 1015.7
20190323211305 39 296 4.3 6.1 0.00 0.00 0.00 61 1015.8
20190323210805 39 295 4.3 7.0 0.00 0.00 0.00 60 1015.8
20190323210305 39 306 5.2 7.0 0.00 0.00 0.00 59 1015.9
20190323205804 39 311 3.5 6.1 0.00 0.00 0.00 58 1016.0
20190323205304 39 306 3.5 6.1 0.00 0.00 0.00 58 1016.0
20190323204804 38 309 2.6 4.3 0.00 0.00 0.00 58 1016.1
20190323204304 38 301 2.6 4.3 0.00 0.00 0.00 58 1016.2
20190323203804 38 305 2.6 4.3 0.00 0.00 0.00 57 1016.3
20190323203304 38 308 2.6 4.3 0.00 0.00 0.00 57 1016.2
20190323202804 38 308 2.6 2.6 0.00 0.00 0.00 57 1016.1
20190323202304 38 308 1.7 2.6 0.00 0.00 0.00 57 1016.0
20190323201804 38 308 1.7 2.6 0.00 0.00 0.00 57 1016.0
20190323201304 38 308 1.7 2.6 0.00 0.00 0.00 56 1015.9
20190323200804 38 308 1.7 2.6 0.00 0.00 0.00 57 1015.9
20190323200304 39 308 1.7 2.6 0.00 0.00 0.00 56 1015.9
20190323195804 39 308 1.7 2.6 0.00 0.00 0.00 56 1015.8
20190323195304 39 308 1.7 2.6 0.00 0.00 0.00 55 1015.8
20190323194804 39 308 1.7 2.6 0.00 0.00 0.00 55 1015.7
20190323194304 39 307 2.6 2.6 0.00 0.00 0.00 54 1015.6
20190323193804 39 305 1.7 2.6 0.00 0.00 0.00 54 1015.6
20190323193305 39 304 2.6 4.3 0.00 0.00 0.00 54 1015.6
20190323192805 39 295 1.7 2.6 0.00 0.00 0.00 55 1015.5
20190323191806 39 294 2.6 4.3 0.00 0.00 0.00 55 1015.3
20190323190804 39 299 2.6 2.6 0.00 0.00 0.00 56 1015.1
20190323190304 39 301 1.7 4.3 0.00 0.00 0.00 56 1015.1
20190323185805 39 301 2.6 6.1 0.00 0.00 0.00 55 1015.0
20190323185303 39 303 2.6 4.3 0.00 0.00 0.00 55 1015.0
20190323184804 39 305 2.6 6.1 0.00 0.00 0.00 55 1015.0
20190323184304 39 300 2.6 6.1 0.00 0.00 0.00 56 1015.0
20190323183804 39 297 2.6 6.1 0.00 0.00 0.00 56 1015.0
20190323183304 39 287 2.6 5.2 0.00 0.00 0.00 57 1014.9
20190323182804 39 281 2.6 6.1 0.00 0.00 0.00 57 1014.9
20190323182304 39 281 3.5 6.1 0.00 0.00 0.00 57 1014.9
20190323181804 39 284 4.3 6.1 0.00 0.00 0.00 56 1014.9
20190323181304 39 297 1.7 4.3 0.00 0.00 0.00 57 1014.9
20190323180804 39 299 1.7 2.6 0.00 0.00 0.00 56 1014.9
20190323180305 39 299 1.7 2.6 0.00 0.00 0.00 56 1014.8
20190323175804 39 300 1.7 2.6 0.00 0.00 0.00 56 1014.8
20190323175304 39 301 1.7 2.6 0.00 0.00 0.00 55 1014.9
20190323174806 39 303 1.7 2.6 0.00 0.00 0.00 56 1014.9
20190323174304 39 303 0.9 1.7 0.00 0.00 0.00 56 1014.8
20190323173804 40 303 1.7 2.6 0.00 0.00 0.00 56 1014.9
20190323173304 40 303 2.6 2.6 0.00 0.00 0.00 55 1014.8
20190323172804 40 303 2.6 4.3 0.00 0.00 0.00 55 1014.8
20190323172304 40 308 2.6 4.3 0.00 0.00 0.00 55 1014.7
20190323171805 40 305 2.6 6.1 0.00 0.00 0.00 55 1014.8
20190323171304 40 313 2.6 5.2 0.00 0.00 0.00 55 1014.7
20190323170804 40 313 3.5 7.0 0.00 0.00 0.00 55 1014.5
20190323170304 40 310 2.6 5.2 0.00 0.00 0.00 55 1014.5
20190323165804 40 304 2.6 6.1 0.00 0.00 0.00 56 1014.5
20190323165304 40 298 2.6 6.1 0.00 0.00 0.00 55 1014.5
20190323164805 41 301 4.3 7.0 0.00 0.00 0.00 54 1014.5
20190323164305 41 299 4.3 6.1 0.00 0.00 0.00 53 1014.5
20190323163805 41 308 3.5 6.1 0.00 0.00 0.00 53 1014.4
20190323163305 41 307 4.3 7.0 0.00 0.00 0.00 53 1014.4
20190323162804 41 312 4.3 8.7 0.00 0.00 0.00 53 1014.4
20190323162305 41 303 5.2 8.7 0.00 0.00 0.00 53 1014.4
20190323161806 41 309 4.3 7.0 0.00 0.00 0.00 54 1014.4
20190323161304 41 310 4.3 7.0 0.00 0.00 0.00 53 1014.3
20190323160804 41 306 4.3 22.6 0.00 0.00 0.00 53 1014.2
20190323160304 42 306 3.5 7.0 0.00 0.00 0.00 52 1014.3
20190323155804 42 305 2.6 6.1 0.00 0.00 0.00 51 1014.2
20190323155304 42 306 2.6 6.1 0.00 0.00 0.00 51 1014.1
20190323154805 42 300 3.5 7.8 0.00 0.00 0.00 50 1014.2
20190323154305 42 304 5.2 10.4 0.00 0.00 0.00 50 1014.2
20190323153804 43 311 7.8 11.3 0.00 0.00 0.00 48 1014.2
20190323153305 43 293 9.6 12.2 0.00 0.00 0.00 48 1014.2
20190323152804 43 312 7.0 10.4 0.00 0.00 0.00 49 1014.0
20190323152304 43 297 6.1 8.7 0.00 0.00 0.00 49 1013.9
20190323151805 42 299 7.0 10.4 0.00 0.00 0.00 49 1013.8
20190323151304 42 302 7.0 11.3 0.00 0.00 0.00 50 1013.9
20190323150804 42 298 5.2 8.7 0.00 0.00 0.00 50 1013.8
20190323150304 43 302 6.1 8.7 0.00 0.00 0.00 49 1013.7
20190323145804 43 296 5.2 8.7 0.00 0.00 0.00 49 1013.6
20190323145304 43 297 5.2 8.7 0.00 0.00 0.00 48 1013.6
20190323144805 43 303 5.2 7.8 0.00 0.00 0.00 49 1013.6
20190323144304 43 302 6.1 8.7 0.00 0.00 0.00 47 1013.7
20190323143804 43 316 4.3 7.0 0.00 0.00 0.00 46 1013.7
20190323143304 44 347 2.6 7.0 0.00 0.00 0.00 46 1013.6
20190323142804 44 343 4.3 7.8 0.00 0.00 0.00 45 1013.6
20190323142304 44 332 4.3 7.8 0.00 0.00 0.00 45 1013.6
20190323141807 44 309 5.2 7.8 0.00 0.00 0.00 46 1013.6
20190323141304 44 311 4.3 7.8 0.00 0.00 0.00 46 1013.6
20190323140804 44 306 5.2 7.8 0.00 0.00 0.00 47 1013.5
20190323140304 44 306 5.2 10.4 0.00 0.00 0.00 47 1013.5
20190323135804 44 290 4.3 7.0 0.00 0.00 0.00 47 1013.3
20190323135304 44 294 4.3 8.7 0.00 0.00 0.00 47 1013.3
20190323134804 44 282 5.2 10.4 0.00 0.00 0.00 46 1013.3
20190323134303 44 289 4.3 7.0 0.00 0.00 0.00 46 1013.1
20190323133804 45 279 5.2 7.8 0.00 0.00 0.00 45 1013.0
20190323133303 45 293 4.3 7.8 0.00 0.00 0.00 45 1012.9
20190323132803 45 302 7.0 11.3 0.00 0.00 0.00 44 1012.9
20190323132304 45 278 7.8 11.3 0.00 0.00 0.00 44 1012.9
20190323131805 46 285 7.8 11.3 0.00 0.00 0.00 43 1012.8
20190323131304 46 300 8.7 13.0 0.00 0.00 0.00 43 1012.6
20190323130804 46 297 8.7 12.2 0.00 0.00 0.00 42 1012.6
20190323130304 46 308 9.6 14.8 0.00 0.00 0.00 43 1012.5
20190323125804 46 294 8.7 13.0 0.00 0.00 0.00 43 1012.3
20190323125304 46 310 11.3 14.8 0.00 0.00 0.00 42 1012.2
20190323124804 46 306 11.3 13.9 0.00 0.00 0.00 42 1012.1
20190323124307 46 303 8.7 13.9 0.00 0.00 0.00 43 1012.0
20190323123805 46 283 8.7 14.8 0.00 0.00 0.00 43 1011.9
20190323123304 46 288 10.4 15.6 0.00 0.00 0.00 42 1011.9
20190323122804 46 293 9.6 17.4 0.00 0.00 0.00 43 1011.8
20190323122304 47 282 8.7 11.3 0.00 0.00 0.00 43 1011.5
20190323121803 47 281 9.6 13.9 0.00 0.00 0.00 42 1011.7
20190323121304 47 275 9.6 13.9 0.00 0.00 0.00 43 1011.7
20190323120804 47 272 8.7 12.2 0.00 0.00 0.00 42 1011.6
20190323120305 47 287 7.8 12.2 0.00 0.00 0.00 43 1011.6
20190323115805 47 269 7.8 12.2 0.00 0.00 0.00 43 1011.5
20190323115307 47 279 6.1 11.3 0.00 0.00 0.00 42 1011.4
20190323114804 47 275 7.8 10.4 0.00 0.00 0.00 40 1011.4
20190323114304 48 277 7.8 11.3 0.00 0.00 0.00 40 1011.4
20190323113804 48 276 6.1 10.4 0.00 0.00 0.00 40 1011.2
20190323113304 48 261 7.0 10.4 0.00 0.00 0.00 39 1011.2
20190323112804 48 283 7.0 10.4 0.00 0.00 0.00 39 1011.1
20190323112305 48 279 6.1 12.2 0.00 0.00 0.00 38 1011.1
20190323111804 48 286 7.8 12.2 0.00 0.00 0.00 37 1011.1
20190323111304 49 286 8.7 13.9 0.00 0.00 0.00 37 1011.2
20190323110804 49 285 8.7 13.9 0.00 0.00 0.00 37 1011.1
20190323110304 49 275 11.3 17.4 0.00 0.00 0.00 36 1011.1
20190323105804 49 298 13.0 21.7 0.00 0.00 0.00 34 1011.1
20190323105306 49 295 10.4 15.6 0.00 0.00 0.00 35 1010.9
20190323104804 49 291 7.8 17.4 0.00 0.00 0.00 36 1010.9
20190323104304 49 299 10.4 15.6 0.00 0.00 0.00 36 1010.9
20190323103804 50 284 13.9 18.2 0.00 0.00 0.00 35 1010.8
20190323103304 50 297 9.6 13.9 0.00 0.00 0.00 37 1010.7
20190323102805 50 297 11.3 15.6 0.00 0.00 0.00 37 1010.6
20190323102305 50 295 8.7 17.4 0.00 0.00 0.00 38 1010.5
20190323101805 50 276 11.3 17.4 0.00 0.00 0.00 37 1010.4
20190323100304 50 278 9.6 14.8 0.00 0.00 0.00 38 1010.5
20190323095805 50 270 10.4 14.8 0.00 0.00 0.00 38 1010.4
20190323093804 51 295 7.8 13.9 0.00 0.00 0.00 35 1010.2
20190323093304 51 279 9.6 14.8 0.00 0.00 0.00 35 1010.1
20190323092803 51 301 10.4 14.8 0.00 0.00 0.00 34 1010.1
20190323092305 52 287 12.2 17.4 0.00 0.00 0.00 34 1010.0
20190323091304 52 289 11.3 15.6 0.00 0.00 0.00 34 1010.0
20190323090804 52 274 8.7 12.2 0.00 0.00 0.00 35 1009.9
20190323090304 52 275 11.3 15.6 0.00 0.00 0.00 34 1009.7
20190323085804 53 290 8.7 13.0 0.00 0.00 0.00 35 1009.7
20190323085305 53 280 8.7 13.0 0.00 0.00 0.00 35 1009.6
20190323084804 53 274 7.8 13.0 0.00 0.00 0.00 36 1009.6
20190323084305 53 282 8.7 12.2 0.00 0.00 0.00 36 1009.7
20190323083804 53 262 10.4 14.8 0.00 0.00 0.00 34 1009.6
20190323083304 54 296 8.7 17.4 0.00 0.00 0.00 34 1009.5
20190323082804 54 298 13.9 20.0 0.00 0.00 0.00 33 1009.5
20190323082307 54 285 11.3 19.1 0.00 0.00 0.00 34 1009.4
20190323081804 54 293 11.3 15.6 0.00 0.00 0.00 34 1009.2
20190323081304 54 277 13.9 19.1 0.00 0.00 0.00 34 1009.1
20190323080804 54 300 11.3 18.2 0.00 0.00 0.00 33 1009.1
20190323080304 54 288 14.8 20.9 0.00 0.00 0.00 33 1009.0
20190323075804 55 297 14.8 20.9 0.00 0.00 0.00 32 1008.9
20190323075306 55 283 13.9 21.7 0.00 0.00 0.00 33 1008.7
20190323074804 55 276 14.8 22.6 0.00 0.00 0.00 33 1008.6
20190323074304 55 276 12.2 18.2 0.00 0.00 0.00 33 1008.6
20190323073804 55 281 12.2 20.0 0.00 0.00 0.00 32 1008.6
20190323073304 55 282 13.9 22.6 0.00 0.00 0.00 31 1008.6
20190323072804 56 289 12.2 21.7 0.00 0.00 0.00 33 1008.5
20190323072305 55 277 12.2 20.0 0.00 0.00 0.00 32 1008.5
20190323071804 56 296 13.9 20.9 0.00 0.00 0.00 31 1008.4
20190323071303 56 290 8.7 14.8 0.00 0.00 0.00 33 1008.4
20190323070804 56 300 9.6 15.6 0.00 0.00 0.00 32 1008.5
20190323070305 55 305 10.4 14.8 0.00 0.00 0.00 32 1008.5
20190323065804 55 331 10.4 18.2 0.00 0.00 0.00 32 1008.5
20190323065304 55 301 9.6 13.0 0.00 0.00 0.00 31 1008.6
20190323064804 54 310 8.7 17.4 0.00 0.00 0.00 33 1008.5
20190323064304 53 311 13.9 21.7 0.00 0.00 0.00 31 1008.5
20190323063804 53 321 16.5 21.7 0.00 0.00 0.00 31 1008.6
20190323063304 53 308 13.9 18.2 0.00 0.00 0.00 31 1008.5
20190323062804 54 315 13.9 22.6 0.00 0.00 0.00 31 1008.5
20190323062305 54 298 11.3 20.0 0.00 0.00 0.00 34 1008.4
20190323061804 54 321 13.0 19.1 0.00 0.00 0.00 34 1008.4
20190323061304 54 291 14.8 22.6 0.00 0.00 0.00 34 1008.3
20190323060804 54 291 13.0 20.0 0.00 0.00 0.00 35 1008.2
20190323060306 54 283 13.0 20.0 0.00 0.00 0.00 38 1008.0
20190323055804 54 286 14.8 22.6 0.00 0.00 0.00 37 1008.0
20190323055304 54 296 13.9 19.1 0.00 0.00 0.00 39 1007.9
20190323054805 54 282 13.9 21.7 0.00 0.00 0.00 39 1007.9
20190323054304 54 285 14.8 20.0 0.00 0.00 0.00 39 1007.9
20190323053804 54 277 13.9 20.0 0.00 0.00 0.00 38 1007.9
20190323053304 54 284 11.3 17.4 0.00 0.00 0.00 40 1008.0
20190323052805 54 295 12.2 17.4 0.00 0.00 0.00 40 1007.9
20190323052304 54 299 12.2 18.2 0.00 0.00 0.00 38 1008.1
20190323051803 55 281 12.2 18.2 0.00 0.00 0.00 39 1008.0
20190323051304 54 290 14.8 22.6 0.00 0.00 0.00 38 1008.1
20190323050805 55 269 13.9 20.0 0.00 0.00 0.00 38 1008.1
20190323050304 56 269 13.9 20.0 0.00 0.00 0.00 36 1008.2
20190323045804 56 279 13.0 20.0 0.00 0.00 0.00 36 1008.1
20190323045304 57 292 11.3 19.1 0.00 0.00 0.00 36 1008.2
20190323044804 58 283 11.3 17.4 0.00 0.00 0.00 35 1008.2
20190323044304 58 265 12.2 17.4 0.00 0.00 0.00 34 1008.3
20190323043804 59 251 12.2 18.2 0.00 0.00 0.00 34 1008.1
20190323043304 58 262 9.6 14.8 0.00 0.00 0.00 36 1008.0
20190323042804 57 297 10.4 17.4 0.00 0.00 0.00 35 1008.1
20190323042305 57 275 12.2 20.0 0.00 0.00 0.00 36 1008.2
20190323041804 58 275 10.4 17.4 0.00 0.00 0.00 35 1008.4
20190323041304 58 267 7.8 12.2 0.00 0.00 0.00 35 1008.5
20190323040804 57 300 5.2 11.3 0.00 0.00 0.00 35 1008.6
20190323040305 57 326 5.2 11.3 0.00 0.00 0.00 33 1008.6
20190323035804 57 296 4.3 10.4 0.00 0.00 0.00 36 1008.9
20190323035304 56 314 7.8 10.4 0.00 0.00 0.00 35 1009.1
20190323034804 56 343 5.2 8.7 0.00 0.00 0.00 35 1009.0
20190323034304 56 318 5.2 7.8 0.00 0.00 0.00 34 1009.3
20190323033804 56 322 4.3 8.7 0.00 0.00 0.00 34 1009.3
20190323033304 55 282 5.2 10.4 0.00 0.00 0.00 35 1009.5
20190323032803 55 281 5.2 10.4 0.00 0.00 0.00 36 1009.6
20190323032305 55 313 5.2 8.7 0.00 0.00 0.00 36 1009.8
20190323031804 55 313 4.3 8.7 0.00 0.00 0.00 38 1009.9
20190323031304 54 308 4.3 7.8 0.00 0.00 0.00 40 1010.0
20190323030804 54 301 4.3 7.8 0.00 0.00 0.00 40 1010.1
20190323030304 54 313 6.1 10.4 0.00 0.00 0.00 40 1010.4
20190323025804 54 321 5.2 11.3 0.00 0.00 0.00 40 1010.5
20190323025304 54 313 7.8 11.3 0.00 0.00 0.00 41 1010.7
20190323024804 54 307 6.1 10.4 0.00 0.00 0.00 43 1010.7
20190323024304 54 319 5.2 10.4 0.00 0.00 0.00 44 1010.8
20190323023804 53 334 6.1 10.4 0.00 0.00 0.00 46 1010.8
20190323023304 53 322 4.3 10.4 0.00 0.00 0.00 48 1010.8
20190323022805 53 327 7.0 10.4 0.00 0.00 0.00 47 1010.9
20190323022304 53 313 7.0 10.4 0.00 0.00 0.00 47 1010.9
20190323021804 52 317 5.2 10.4 0.00 0.00 0.00 47 1010.9
20190323021304 52 333 6.1 11.3 0.00 0.00 0.00 48 1010.9
20190323020804 52 319 8.7 12.2 0.00 0.00 0.00 47 1010.9
20190323020304 52 317 8.7 13.9 0.00 0.00 0.00 47 1011.0
20190323015807 52 325 7.0 13.0 0.00 0.00 0.00 48 1010.9
20190323015305 52 354 6.1 12.2 0.00 0.00 0.00 48 1011.0
20190323014804 52 308 7.8 14.8 0.00 0.00 0.00 47 1011.2
20190323014304 52 338 7.8 11.3 0.00 0.00 0.00 48 1011.2
20190323013804 52 315 8.7 13.9 0.00 0.00 0.00 48 1011.2
20190323013304 52 328 8.7 13.9 0.00 0.00 0.00 48 1011.2
20190323012804 52 337 7.8 15.6 0.00 0.00 0.00 48 1011.3
20190323012304 52 309 8.7 13.0 0.00 0.00 0.00 48 1011.4
20190323011804 51 320 7.0 11.3 0.00 0.00 0.00 49 1011.4
20190323011304 51 336 7.0 13.0 0.00 0.00 0.00 49 1011.4
20190323010805 51 332 9.6 14.8 0.00 0.00 0.00 49 1011.5
20190323010305 51 333 8.7 12.2 0.00 0.00 0.00 50 1011.6
20190323005804 51 328 7.8 14.8 0.00 0.00 0.00 50 1011.7
20190323005304 51 316 9.6 13.9 0.00 0.00 0.00 50 1011.7
20190323004804 51 334 5.2 10.4 0.00 0.00 0.00 51 1011.7
20190323004304 50 335 7.0 10.4 0.00 0.00 0.00 50 1011.7
20190323003804 50 301 6.1 10.4 0.00 0.00 0.00 50 1011.8
20190323003305 50 309 7.8 10.4 0.00 0.00 0.00 49 1011.8
20190323002804 50 309 5.2 10.4 0.00 0.00 0.00 51 1011.8
20190323002304 49 322 7.8 13.9 0.00 0.00 0.00 50 1011.7
20190323001804 49 307 8.7 12.2 0.00 0.00 0.00 50 1011.6
20190323001304 49 302 7.8 12.2 0.00 0.00 0.00 50 1011.6
20190323000804 49 310 8.7 11.3 0.00 0.00 0.00 50 1011.6
20190323000304 49 332 9.6 13.0 0.00 0.00 0.00 51 1011.5
20190322235804 49 320 8.7 12.2 0.00 0.00 0.00 50 1011.5
20190322235304 49 301 7.8 13.0 0.00 0.00 0.00 50 1011.5
20190322234805 49 288 9.6 14.8 0.00 0.00 0.00 51 1011.6
20190322234304 49 308 7.0 10.4 0.00 0.00 0.00 52 1011.5
20190322233804 49 301 8.7 13.0 0.00 0.00 0.00 52 1011.5
20190322233304 49 301 8.7 13.0 0.00 0.00 0.00 52 1011.5
20190322232804 49 318 7.8 12.2 0.00 0.00 0.00 53 1011.2
20190322232304 49 302 7.8 12.2 0.00 0.00 0.00 53 1011.2
20190322231804 49 314 6.1 10.4 0.00 0.00 0.00 53 1011.0
20190322231304 48 310 8.7 12.2 0.00 0.00 0.00 53 1010.9
20190322230804 48 313 8.7 12.2 0.00 0.00 0.00 53 1010.9
20190322230304 48 318 8.7 12.2 0.00 0.00 0.00 53 1010.8
20190322225805 48 315 7.0 11.3 0.00 0.00 0.00 53 1010.8
20190322225304 48 297 8.7 12.2 0.00 0.00 0.00 53 1010.9